Location: Newport
(44.6370°N, 124.0520°W)
Time: 23:41:58
(UTC-07:00)

Envisat - Pass Details

Date: 09 October 2017
Orbit: 764 x 766 km, 98.2° (Epoch: 20 October)

Event Time Altitude Azimuth Distance (km) Brightness Sun altitude
Exits shadow 20:24:53 37° 104° (ESE) 1,175 3.4 -19.2°
Maximum altitude 20:26:03 43° 69° (ENE) 1,064 3.3 -19.4°
Drops below altitude 10° 20:30:51 10° 359° (N) 2,312 5.6 -20.2°
Sets 20:33:15 0° 353° (N) 3,243 6.5 -20.6°
